Regional Weather Roundup
Issued by NWS

Home | Current Version | Previous Version | Graphics & Text | Print | Product List | Glossary On
Versions: 1 2 3 4 5 6 7 8 9 10 11 12 13 14 15 16 17 18 19 20 21 22 23 24 25 26 27 28 29 30 31 32 33 34 35 36 37 38 39 40 41 42 43 44 45 46 47 48 49 50
000
ASUS44 KMEG 250910
RWRTN
TENNESSEE HOURLY STATE WEATHER ROUNDUP
NATIONAL WEATHER SERVICE MEMPHIS TN
300 AM CST THU DEC 25 2014

TNZ002-004-019-021-049-052-054-088>092-251000-
WEST TENNESSEE

CITY           SKY/WX    TMP DP  RH WIND       PRES   REMARKS
MEMPHIS INTL   CLOUDY    41  35  79 SW5       30.06R
NWS MEMPHIS      N/A     42 N/A N/A MISG        N/A
JACKSON        CLOUDY    40  34  79 W7        30.05R
DYERSBURG      CLOUDY    39  27  60 SW3       30.05R
UNION CITY     CLOUDY    37  34  87 W6        30.00R WCI  33
PARIS          CLOUDY    36  34  93 W5        30.01R WCI  32
HUNTINGDON     CLOUDY    36  33  88 W3        30.03R
LEXINGTON      MOCLDY    32  32 100 CALM      30.02R
SAVANNAH       MOCLDY    36  34  93 CALM      30.05R
$$

TNZ008-025-027-028-033-062-065-066-251000-
NORTH MIDDLE TENNESSEE

CITY           SKY/WX    TMP DP  RH WIND       PRES   REMARKS
NASHVILLE      CLOUDY    41  33  73 NW7       30.02R
CLARKSVILLE    CLOUDY    40  35  83 W6        30.00R
SMYRNA         CLOUDY    41  35  79 W8        30.03R
COOKEVILLE     CLOUDY    39  36  87 VRB6      29.98R WCI  35
CROSSVILLE     CLOUDY    37  33  85 W9        29.96R WCI  30
$$

TNZ061-075-076-078-094-096-097-251000-
SOUTH MIDDLE TENNESSEE

CITY           SKY/WX    TMP DP  RH WIND       PRES   REMARKS
FAYETTEVILLE   CLOUDY    37  34  87 MISG      30.03R
TULLAHOMA      CLOUDY    37  34  87 W6        30.01R WCI  33
WINCHESTER     CLOUDY    39  36  87 W6        30.02R WCI  35
MCMINNVILLE    CLOUDY    39  37  93 CALM      30.00R
COLUMBIA       CLOUDY    39  39 100 W6        30.01R WCI  35
SHELBYVILLE    CLOUDY    41  37  87 W7        30.03R
$$

TNZ017-018-042-046-047-251000-
NORTHEAST TENNESSEE

CITY           SKY/WX    TMP DP  RH WIND       PRES   REMARKS
TRI CITIES     LGT RAIN  41  37  86 W9G21     29.89R
ELIZABETHTON   PTSUNNY   39  36  87 VRB6      29.89R WCI  35
$$

TNZ012-013-036-069-073-074-251000-
CENTRAL EAST TENNESSEE

CITY           SKY/WX    TMP DP  RH WIND       PRES   REMARKS
KNOXVILLE      MOCLDY    40  36  86 W9        29.98R WCI  34
OAK RIDGE      MOCLDY    41  35  79 CALM      29.98R
GATLINBURG     CLOUDY    39  34  81 W10       29.96R WCI  32
MORRISTOWN     CLOUDY    41  36  81 W9        29.94R
$$

TNZ083-085-099-251000-
SOUTHEAST TENNESSEE

CITY           SKY/WX    TMP DP  RH WIND       PRES   REMARKS
CHATTANOOGA    CLOUDY    44  33  65 W8        30.02R
$$

SKY/WX REPORTED AS FAIR MEANS FEW OR NO CLOUDS BELOW
12 THOUSAND FEET.




USA.gov is the U.S. government's official web portal to all federal, state and local government web resources and services.